TIANYI 52

Basic Information
目录编号:
100742
目录名称:
TIANYI 52
国际标识:
2026-215B
轨道中心:
EARTH
卫星名称:
TIANYI 52
卫星全名:
TIANYI 52
卫星状态:
在轨 (已飞行3 天)
发射日期:
2026-09-17 UTC
国别 :
中国 (CN)
星等 :
--
This satellite is enrolled in the Space Conjunction Data Service (SCDS) and the current flight risk assessment level is: No High Risk
Orbit Information
数据来源 国际轨道数据 AOE轨道数据
星历时间 2026-09-20T23:14:50+0800
8小时前
查看轨道信息
2026-09-19T05:00:00+0800
2天前
查看轨道信息
半长轴 6877.273km 6877.381km
偏心率 0.0004794 0.0004819
轨道倾角 55.020° 55.020°
近地点辐角 92.976° 87.007°
升交点赤经 337.760° 345.487°
平近点角 267.181° 342.433°
近地点 495.839km 495.929km
远地点 502.433km 502.559km
周期 94.598分钟 94.601分钟
每日圈数 15.222234 15.221876
Detailed Information
使用方式:
暂无
2D Orbit Map
3D Orbit Map
Orbit Altitude Analysis Chart
Orbit Inclination Analysis Chart
Orbit Comprehensive Analysis Chart
View Comprehensive Chart
Miss Distance Evolution Trend with All Objects Subscribe to Flight Safety Assessment
Collision Probability Evolution Trend with All Objects Subscribe to Flight Safety Assessment